COSMOS 1226

导读 | 豆包AI

COSMOS 1226是苏联(归属独联体CIS)于1980年12月10日发射的卫星,属于冷战时期苏联“宇宙”(COSMOS)系列卫星。该系列多承担军事侦察、空间技术验证任务,这颗卫星在完成既定任务后,最终脱离轨道再入大气层销毁,它是苏联航天侦察体系的组成部分,体现了当时苏联在太空领域的技术发展水平。

基本信息
目录编号:
12091
目录名称:
COSMOS 1226
国际标识:
1980-099A
轨道中心:
EARTH
卫星名称:
COSMOS 1226
卫星全名:
--
卫星状态:
在轨 (已飞行16577 天)
发射日期:
1980-12-10 UTC
国别 :
俄罗斯(独联体) (CIS)
星等 :
--
轨道信息
数据来源 国际轨道数据 AOE轨道数据
星历时间 2026-04-30T13:33:37+0800
9小时前
查看轨道信息
2026-04-27T03:00:00+0800
3天前
查看轨道信息
半长轴 7360.818km 7360.818km
偏心率 0.0033066 0.0032824
轨道倾角 82.944° 82.944°
近地点辐角 194.025° 203.604°
升交点赤经 39.427° 41.975°
平近点角 322.302° 217.763°
近地点 958.341km 958.519km
远地点 1007.021km 1006.843km
周期 104.749分钟 104.749分钟
每日圈数 13.747183 13.747182
详细信息
使用方式:
暂无
2D轨道图
3D轨道图
轨道高度分析图
轨道倾角分析图
轨道综合分析图
查看轨道综合分析图